#timestamp,LO_Frequency,Hit,StdDev 
1619892015.9,286046998.0,N
1619892035.7,286046995.1,Y
1619892055.5,286046996.8,P
1619892075.4,286046997.2,N
1619892095.2,286046996.7,P
1619892115.0,286046998.8,N
1619892115.9,286046998.8,N
1619892135.8,286047001.2,N
1619892155.6,286046998.7,N
1619892175.5,286046999.4,N
1619892195.3,286046999.3,N
1619892215.1,286046999.1,N
1619892235.9,286046999.4,N
1619892255.7,286046996.8,N
1619892275.5,286046996.9,N
1619892295.4,286046996.5,N
1619892315.2,286046997.0,N
1619892335.1,286046998.8,N
1619892336.0,286046998.8,N
1619892355.8,286046999.6,N
1619892375.6,286046999.1,N
1619892395.5,286047001.2,N
1619892415.3,286047000.4,N
1619892435.1,286047001.1,N
1619892455.9,286047000.6,N
1619892475.7,286047000.4,N
1619892495.6,286046998.2,N
1619892515.4,286046996.9,N
1619892535.2,286046996.9,N
1619892555.1,286046998.1,N
1619892556.0,286046998.1,N
1619892575.8,286047001.2,N
1619892595.6,286046998.5,N
1619892615.5,286047000.8,N
1619892635.3,286046998.7,N
1619892655.2,286046996.7,N
1619892675.9,286046999.0,N
1619892695.7,286046998.1,N
1619892715.6,286046998.1,N
1619892735.4,286047000.9,N
1619892755.2,286047000.8,N
1619892775.1,286047001.1,N
1619892776.0,286047001.1,N
1619892795.8,286046999.4,N
1619892815.7,286046998.7,N
1619892835.5,286047001.2,N
1619892855.3,286046998.7,N
1619892875.2,286047001.0,N
1619892895.0,286046998.7,N
1619892895.9,286046998.7,N
1619892915.8,286046996.9,N
1619892935.6,286046999.1,N
1619892955.4,286046996.6,N
1619892975.3,286046998.5,N
1619892995.1,286047001.1,N
1619892996.0,286047001.1,N
1619893015.8,286046998.1,N
1619893035.7,286046998.9,N
1619893055.5,286047001.2,N
1619893075.4,286047001.1,N
1619893095.2,286047001.2,N
1619893115.0,286047000.4,N
1619893115.9,286047000.4,N
1619893135.8,286047000.6,N
1619893155.6,286046999.6,N
1619893175.4,286047001.1,N
1619893195.3,286046998.3,N
1619893215.1,286046998.4,N
1619893235.9,286047001.2,N
1619893255.7,286047000.8,N
1619893275.5,286047001.0,N
1619893295.4,286046998.8,N
1619893315.2,286046998.5,N
1619893335.1,286046998.2,N
1619893336.0,286046998.2,N
1619893355.8,286046998.6,N
1619893375.6,286047000.9,N
1619893395.5,286046999.3,N
1619893415.3,286046996.9,N
1619893435.1,286046999.6,N
1619893455.9,286046998.1,N
1619893475.7,286046999.9,N
1619893495.6,286047002.2,N
1619893515.4,286047002.4,N
1619893535.2,286047001.7,N
1619893555.1,286047001.7,N
1619893556.0,286047001.7,N
1619893575.8,286047003.5,N
1619893595.6,286047004.2,N
1619893615.5,286047003.3,N
1619893635.3,286047004.9,N
1619893655.2,286047005.7,N
1619893675.9,286047005.6,N
1619893695.7,286047005.0,N
1619893715.6,286047004.0,N
1619893735.4,286047001.8,N
1619893755.2,286047002.5,N
1619893775.1,286046999.8,N
1619893776.0,286046999.8,N
1619893795.8,286047002.3,N
1619893815.7,286047002.3,N
1619893835.5,286046999.9,N
1619893855.3,286046999.8,N
1619893875.2,286047002.7,N
1619893895.0,286047002.5,N
1619893895.9,286047002.5,N
1619893915.7,286046999.8,N
1619893935.6,286047001.9,N
1619893955.4,286047002.8,N
1619893975.3,286047002.2,N
1619893995.1,286047001.8,N
1619893996.0,286047001.8,N
1619894015.8,286047001.5,N
1619894035.7,286047002.4,N
1619894055.5,286047002.6,N
1619894075.3,286047001.3,N
1619894095.2,286047001.5,N
1619894115.0,286047004.0,N
1619894115.9,286047004.0,N
1619894135.8,286047004.0,N
1619894155.6,286047005.2,Y
1619894175.4,286047001.8,P
1619894195.3,286046999.9,N
1619894215.1,286047004.3,P
1619894235.9,286047001.6,N
1619894255.7,286047000.5,N
1619894275.5,286046999.8,N
1619894295.4,286047000.2,N
1619894315.2,286047002.7,N
1619894335.0,286047004.2,N
1619894335.9,286047004.2,N
1619894355.8,286047002.2,N
1619894375.6,286046999.9,N
1619894395.5,286047000.3,N
1619894415.3,286047000.0,N
1619894435.1,286047002.8,N
1619894455.9,286047002.4,N
1619894475.7,286047002.4,N
1619894495.5,286047002.8,N
1619894515.4,286047001.7,N
1619894535.2,286046999.9,N
1619894555.0,286047000.5,N
1619894556.0,286047000.5,N
1619894575.8,286046999.8,N
1619894595.6,286047000.5,N
1619894615.5,286047002.8,N
1619894635.3,286047000.0,N
1619894655.1,286047004.4,Y
1619894675.9,286046999.7,P
1619894695.7,286046999.9,N
1619894715.6,286047002.3,N
1619894735.4,286047000.1,N
1619894755.2,286047001.4,N
1619894775.1,286047003.9,Y
1619894776.0,286047003.9,P
1619894795.8,286047001.9,N
1619894815.6,286047001.6,N
1619894835.5,286047003.8,Y
1619894855.3,286047001.6,P
1619894875.2,286047004.2,P
1619894895.9,286047005.7,P
1619894915.7,286047003.0,N
1619894935.6,286047004.8,Y
1619894955.4,286047002.3,P
1619894975.2,286047004.4,P
1619894995.1,286047001.3,N
1619894996.0,286047001.3,N
1619895015.8,286047004.2,Y
1619895035.7,286047000.6,P
1619895055.5,286047000.0,N
1619895075.3,286047002.5,N
1619895095.2,286047002.1,N
1619895115.0,286047000.1,N
1619895115.9,286047000.1,N
1619895135.8,286046999.9,N
1619895155.6,286047000.1,N
1619895175.4,286047002.2,N
1619895195.3,286047001.6,N
1619895215.1,286047004.3,Y
1619895235.9,286047001.8,P
1619895255.7,286047003.6,P
1619895275.5,286047002.7,N
1619895295.4,286047000.2,N
1619895315.2,286047000.7,N
1619895335.0,286046998.8,N
1619895335.9,286046998.8,N
1619895355.8,286047000.8,N
1619895375.6,286047000.0,N
1619895395.5,286047002.7,N
1619895415.3,286046999.8,N
1619895435.1,286047000.9,N
1619895455.9,286046998.6,N
1619895475.7,286047000.9,N
1619895495.5,286047000.2,N
1619895515.4,286047000.2,N
1619895535.2,286047001.2,N
1619895555.1,286046999.8,N
1619895556.0,286046999.8,N
1619895575.8,286047002.4,N
1619895595.6,286047001.5,N
